Prox-1
1 44339U 19036A   25036.53308820  .00019268  00000-0  27134-2 0  9992
2 44339  23.9963 154.2166 0008646  97.4598 262.6881 14.75729346299649
SONATE
1 44400U 19038Q   25036.59914077  .00072827  00000-0  98333-3 0  9996
2 44400  97.7109  50.7058 0009368   2.7075 357.4228 15.57487349310096
Taurus 1
1 44530U 19059C   25036.78727331  .00012751  00000-0  25095-2 0  9993
2 44530  98.5899 170.6962 0009402  57.4432 302.7675 14.62683380285823
Duchifat 3
1 44854U 19089C   25036.73530242  .00042442  00000-0  12832-2 0  9998
2 44854  36.9496  54.9643 0010537 240.6072 119.3629 15.33225895283841
TO-108
1 44881U 19093C   25036.54302756  .00002237  00000-0  26754-3 0  9996
2 44881  97.8051 114.7632 0012625 279.7521  80.2268 14.85095180277665
FloripaSat 1
1 44885U 19093G   25036.78954447  .00011028  00000-0  98723-3 0  9999
2 44885  97.8230 124.3301 0009906 258.1900 101.8210 14.95970196278228
RS-44
1 44909U 19096E   25036.24681178  .00000008  00000-0 -63181-5 0  9997
2 44909  82.5240 309.9074 0216543 226.1336 132.1698 12.79738115238787
UPMSat 2
1 46276U 20061E   25036.44124026  .00046922  00000-0  78102-3 0  9997
2 46276  97.2643 108.1578 0000755  50.0316 310.1003 15.51896577246116
AmicalSat
1 46287U 20061R   25010.85863821  .11283921  24654-5  56408-3 0  9994
2 46287  97.2840  89.8720 0009935 281.1985  78.8199 16.41970930241877
SALSAT
1 46495U 20068K   25036.50487699  .00011727  00000-0  55239-3 0  9993
2 46495  97.8475   9.1774 0010636 224.3787 135.6595 15.19639863239668
CubeSX-Sirius-HSE
1 47951U 21022V   25036.86871982  .00080008  00000-0  13690-2 0  9995
2 47951  97.4348 303.8547 0010417  40.8283 319.3747 15.50920668214442
CubeSX-HSE
1 47952U 21022W   25036.85164643  .00087409  00000-0  14699-2 0  9996
2 47952  97.4348 304.0088 0010153  37.9082 322.2883 15.51384540214456
KSU-Cubesat
1 47954U 21022Y   25036.26466533  .00202950  00000-0  17662-2 0  9999
2 47954  97.4323 307.1944 0008167  51.2206 308.9783 15.68371926214323
GRBAlpha
1 47959U 21022AD  25036.81257238  .00082560  00000-0  13956-2 0  9990
2 47959  97.4339 304.1315 0010408  40.0808 320.1210 15.51253855213275
Orbicraft-Zorkiy
1 47960U 21022AE  25036.80575256  .00129692  00000-0  15292-2 0  9997
2 47960  97.4336 307.0547 0008717  42.7616 317.4318 15.60888817214124
TUBIN
1 48900U 21059X   25036.76395543  .00041479  00000-0  81869-3 0  9996
2 48900  97.6652 197.2870 0005169 335.0725  25.0274 15.47044233200812
LEDSAT
1 49069U 21073D   25036.44077185  .00051382  00000-0  11403-2 0  9993
2 49069  97.4056 114.3847 0013165 169.5697 190.5827 15.43465357192184
CUTE
1 49263U 21088D   25036.77305236  .00037579  00000-0  92426-3 0  9999
2 49263  97.4659 109.9013 0008846 337.1541  22.9310 15.40495141185329
TeikyoSat 4
1 49396U 21102B   25036.86902508  .00004799  00000-0  32661-3 0  9991
2 49396  97.4292  79.7090 0012404 192.0890 168.0042 15.06699950177914
Z-Sat
1 49399U 21102E   25036.86287730  .00008224  00000-0  47236-3 0  9998
2 49399  97.4006  82.1017 0019020 168.2970 191.8707 15.12609239178261
KOSEN 1
1 49402U 21102H   25036.10507236  .00010108  00000-0  50538-3 0  9999
2 49402  97.3917  83.9218 0017528 149.5000 210.7257 15.17496335178396
HO-113
1 50466U 21131B   25036.85946781  .00001384  00000-0  44860-3 0  9994
2 50466  98.5146 126.8451 0004915 138.7986 221.3574 14.40514213163632
IRIS-A
1 51044U 22002BN  25036.47408865  .00080712  00000-0  11407-2 0  9991
2 51044  97.3473 111.1840 0003818 274.4756  85.6063 15.56266539170363
Foresail-1
1 52766U 22057AL  25036.63091429  .00076565  00000-0  10939-2 0  9995
2 52766  97.5974 177.5501 0006025   2.3716 357.7566 15.55974818150421
SNUGLITE 2
1 52899U 22065F   25036.83005810  .00002927  00000-0  58537-3 0  9990
2 52899  98.1464 180.2044 0008281 136.4487 223.7370 14.62571915138397
IO-117
1 53106U 22080B   25034.56446200 -.00000003  00000-0  00000-0 0  9992
2 53106  70.1417 112.1355 0008120  52.7419 307.3980  6.42557586 60132
FO-118
1 54684U 22167C   25036.79721248  .00312936  00000-0  17736-2 0  9991
2 54684  97.6097 199.3757 0006833 331.9848  28.1049 15.78173300120400
SO-120
1 56992U 23084BU  25036.74756638  .01209340  76367-3  24120-2 0  9992
2 56992  97.5201 171.7907 0011614 295.0789  64.9283 15.99885574 92309
UmKA 1 (RS40S)
1 57172U 23091G   25036.90576140  .00010723  00000-0  60991-3 0  9996
2 57172  97.5786  93.0055 0016069  44.9300 315.3228 15.12939368 88760
CubeBel-2 (EU11S)
1 57175U 23091K   25036.87750251  .00014532  00000-0  76549-3 0  9990
2 57175  97.5791  93.4921 0014299  55.1244 305.1330 15.15620823 88799
VERONIKA
1 58261U 23174F   25036.75023523  .00067667  00000-0  15075-2 0  9994
2 58261  97.4302 118.2382 0007594 132.9046 227.2840 15.43338010 69439
KAFASAT
1 58317U 23174BP  25036.48575876  .00159457  00000-0  18937-2 0  9998
2 58317  97.4189 120.9852 0003142  97.8095 262.3519 15.60637463 69610
ENSO
1 58470U 23185J   25036.87812489  .00047757  00000-0  11565-2 0  9996
2 58470  97.3924 109.3414 0009000 163.9081 196.2453 15.40909869 65898
EIRSAT-1
1 58472U 23185L   25036.85480803  .00061842  00000-0  13204-2 0  9990
2 58472  97.3916 109.9421 0008050 164.6529 195.4965 15.44621851 65934
SONATE-2
1 59112U 24043Q   25036.79119815  .00024682  00000-0  86410-3 0  9992
2 59112  97.4957 166.1794 0011915 191.7657 168.3306 15.29425124 51376
MO-122
1 60209U 24125G   25036.56733195  .00025247  00000-0  87339-3 0  9999
2 60209  97.2951 249.9729 0020344 219.4801 140.4958 15.29675177 32952
GRBBeta
1 60237U 24128C   25036.49313662  .00006919  00000-0  55002-3 0  9995
2 60237  61.9923 151.6348 0039088  28.3899 331.9309 15.00729125 31560
Curium One
1 60242U 24128H   25036.48730516  .00011219  00000-0  85352-3 0  9991
2 60242  61.9827 151.3705 0039351  22.5649 337.7161 15.01928628 31576
ROBUSTA-3A
1 60243U 24128J   25036.58965699  .00012217  00000-0  93824-3 0  9997
2 60243  61.9893 151.4704 0037412  20.4986 339.7595 15.01567827 31581
CatSat
1 60246U 24125J   25036.32298997  .00015951  00000-0  59105-3 0  9991
2 60246  97.2742 250.1292 0045824 174.1285 186.0501 15.26707185 31000
AO-123
1 61781U 24199AY  25036.80353378  .00012866  00000-0  50878-3 0  9995
2 61781  97.3749 266.1804 0015239 277.9166  82.0343 15.25499054 57993
POEM 4 (BGS ARPIT)
1 62461U 24253C   25036.71933410  .00129999  00000-0  68586-3 0  9994
2 62461  55.2206  79.1862 0011725  27.0675 333.0983 15.79733717  5821
